Flag for Brazil Weather past 2 weeks in Belém, Para, Brazil

Now
77 °F

Passing clouds.


Feels Like: 78 °F
Forecast: N/A
Wind: 7 mph from East

Location: Belem Aeroporto

Current Time: Feb 28, 2015 at 8:33:11 PM

Latest Report: Feb 28, 2015 at 8:00 PM


Visibility: N/A

Pressure: 29.86 "Hg

Humidity: 94%

Dew point: 75 °F

Location of BelémLocation

Historic Weather in Belém — Graph

°F

Belém temperature yesterday

Maximum temperature yesterday: 88 °F (at 12:00 PM)
Minimum temperature yesterday: 73 °F (at 6:00 PM)
Average temperature yesterday: 78 °F

Past Weeks' High & Low Weather Summary

 TemperatureHumidityPressure
High90 °F (Feb 14, 12:00 PM)100% (Feb 19, 1:00 AM)29.95 "Hg (Feb 19, 1:00 AM)
Low72 °F (Feb 21, 1:00 AM)21% (Feb 17, 5:00 PM)29.59 "Hg (Feb 24, 3:00 PM)
Average79 °F83%29.86 "Hg
* Reported Feb 13 7:00 PM — Feb 28 7:00 PM, Belém, Weather by CustomWeather, © 2015

Note: Actual official high and low records may vary slightly from our data, if they occured in-between our weather recording intervals... More about our weather records

Advertising

Belém weather history for previous 24 hours

 ConditionsComfort  
Time TempWeatherWind HumidityBarometerVisibility
7:00 PM
Sat, Feb 28
79 °FThundershowers. Partly cloudy.2 mph89%N/AN/A
6:00 PM77 °FBroken clouds.3 mph89%29.80 "HgN/A
5:00 PM73 °FBroken clouds.5 mph94%29.80 "Hg6 mi
4:00 PM86 °FScattered showers. Broken clouds.8 mph70%N/AN/A
3:00 PM86 °FBroken clouds.7 mph70%29.83 "HgN/A
2:00 PM86 °FPartly sunny.6 mph66%29.86 "HgN/A
1:00 PM84 °FPartly sunny.6 mph74%29.89 "HgN/A
12:00 PM82 °FPartly sunny.6 mph79%29.92 "HgN/A
11:00 AM81 °FPartly sunny.5 mph84%29.92 "HgN/A
10:00 AM79 °FPartly sunny.6 mph89%29.95 "HgN/A
9:00 AM79 °FPartly sunny.3 mph89%29.92 "Hg4 mi
8:00 AM75 °FFog.3 mph100%29.89 "Hg2 mi
7:00 AM75 °FFog.3 mph94%29.86 "Hg0 mi
6:00 AM75 °FFog.3 mph94%29.86 "Hg0 mi
5:00 AM75 °FPassing clouds.5 mph94%29.83 "HgN/A
4:00 AM75 °FPassing clouds.3 mph94%29.83 "HgN/A
3:00 AM77 °FPassing clouds.5 mph94%29.86 "HgN/A
2:00 AM77 °FPartly cloudy.2 mph94%29.86 "HgN/A
1:00 AM77 °FPartly cloudy.3 mph94%29.89 "HgN/A
12:00 AM77 °FPartly cloudy.3 mph89%29.92 "HgN/A
11:00 PM
Fri, Feb 27
77 °FPassing clouds.3 mph94%29.89 "HgN/A
10:00 PM77 °FPartly cloudy.2 mph89%29.89 "HgN/A
9:00 PM75 °FPassing clouds.3 mph94%29.89 "HgN/A
8:00 PM75 °FPassing clouds.3 mph94%29.86 "HgN/A
Weather by CustomWeather, © 2015

See weather overviewHow to use our weather pages